EW3698 Weather Reports


time (UTC)temp
F
wind
direction
speed
knots
gust
knots
rain 1hr
in
rain 24hr
in
rain mn
in
humidity
%
barometer
mb
20260906113022 0 0.0 0.0 0.00 0.03 0.00 1015.0
20260906111518 0 0.0 0.0 0.00 0.03 0.00 1014.9
20260906110013 0 0.0 0.0 0.00 0.03 0.00 1014.7
20260906104509 0 0.0 0.0 0.00 0.03 0.00 1014.7
20260906103012 0 0.0 0.0 0.00 0.03 0.00 1014.5
20260906101612 0 0.0 0.0 0.00 0.03 0.03 1014.5
20260906100057 0 0.0 0.0 0.00 0.03 0.03 1014.4
20260906094539 0 0.0 0.0 0.00 0.03 0.03 1014.3
20260906093029 0 0.0 0.0 0.00 0.03 0.03 1014.3
20260906091526 0 0.0 0.0 0.00 0.03 0.03 1014.3
20260906090020 0 0.0 0.0 0.00 0.03 0.03 1014.2
20260906084517 0 0.0 0.0 0.00 0.03 0.03 1013.9
20260906083010 0 0.0 0.0 0.00 0.03 0.03 1013.9
20260906081508 0 0.0 0.0 0.00 0.03 0.03 1014.0
20260906080003 0 0.0 0.0 0.00 0.03 0.03 1013.9
20260906074543 67 153 0.0 1.7 0.00 0.03 0.03 90 1013.8
20260906073040 68 161 0.0 1.7 0.00 0.03 0.03 91 1013.8
20260906071527 69 155 0.0 0.9 0.00 0.03 0.03 91 1013.8
20260906070022 69 155 0.9 3.5 0.00 0.03 0.03 91 1013.9
20260906064504 69 158 0.0 2.6 0.00 0.03 0.03 91 1013.8
20260906063002 70 155 0.0 2.6 0.00 0.03 0.03 91 1013.9
20260906061547 70 154 0.0 2.6 0.00 0.03 0.03 92 1014.0
20260906060052 71 154 0.0 3.5 0.00 0.03 0.03 92 1014.0
20260906054529 71 151 0.9 2.6 0.00 0.03 0.03 92 1013.8
20260906053027 71 145 0.0 1.7 0.00 0.03 0.03 91 1013.6
20260906051527 72 115 0.0 0.0 0.00 0.03 0.03 91 1013.6
20260906050027 72 141 0.0 0.9 0.00 0.03 0.03 91 1013.3
20260906044526 73 133 0.0 0.9 0.00 0.03 0.03 92 1013.1
20260906043031 73 141 0.0 3.5 0.00 0.03 0.03 92 1012.9
20260906041525 73 137 0.0 2.6 0.00 0.03 0.03 93 1012.9
20260906040025 74 152 0.0 0.9 0.00 0.03 0.03 92 1012.8
20260906034506 74 146 0.0 3.5 0.00 0.03 0.03 92 1012.8
20260906033006 74 151 0.0 3.5 0.00 0.03 0.03 92 1012.6
20260906031549 75 153 0.0 2.6 0.00 0.03 0.03 92 1012.8
20260906030048 75 162 0.0 1.7 0.00 0.03 0.03 91 1012.8
20260906024531 75 159 0.0 3.5 0.00 0.03 0.03 91 1012.9
20260906023030 76 163 0.0 0.9 0.00 0.03 0.03 90 1012.9
20260906021512 76 162 0.0 0.9 0.00 0.03 0.03 90 1012.9
20260906020011 77 162 0.0 0.0 0.00 0.03 0.03 89 1012.8
20260906014553 77 162 0.0 1.7 0.00 0.03 0.03 89 1012.8
20260906013053 77 162 0.0 0.0 0.00 0.03 0.03 89 1012.6
20260906011540 77 162 0.0 0.9 0.00 0.03 0.03 90 1012.4
20260906010053 78 165 0.0 0.9 0.00 0.03 0.03 90 1012.2
20260906004552 78 179 0.0 1.7 0.00 0.03 0.03 89 1012.1
20260906003039 79 163 0.0 0.0 0.00 0.03 0.03 89 1011.8
20260906001555 79 163 0.0 0.0 0.00 0.03 0.03 89 1011.7
20260906000038 79 163 0.0 0.0 0.03 0.03 0.03 89 1011.7
20260905234538 79 163 0.0 0.0 0.03 0.03 0.03 89 1011.7
20260905233037 79 165 0.0 1.7 0.03 0.03 0.03 88 1011.5
20260905231523 80 162 0.9 6.1 0.03 0.03 0.03 86 1011.6
20260905230021 83 159 0.9 2.6 0.00 0.00 0.00 78 1011.4
20260905224600 84 163 0.0 0.0 0.00 0.00 0.00 76 1011.3
20260905223100 84 163 0.0 2.6 0.00 0.00 0.00 76 1011.1
20260905221543 85 154 0.0 0.9 0.00 0.00 0.00 72 1011.1
20260905220041 87 152 0.0 1.7 0.00 0.00 0.00 68 1011.1
20260905214523 91 333 0.0 4.3 0.00 0.00 0.00 61 1010.8
20260905213022 93 165 0.0 3.5 0.00 0.00 0.00 54 1010.9
20260905211504 95 165 0.0 4.3 0.00 0.11 0.00 52 1010.9
20260905210000 95 235 0.0 3.5 0.00 0.11 0.00 52 1011.1
20260905204546 95 167 0.0 5.2 0.00 0.11 0.00 52 1011.3
20260905203046 94 47 0.0 4.3 0.00 0.11 0.00 53 1011.3
20260905201541 94 307 0.0 0.9 0.00 0.11 0.00 53 1011.6
20260905200108 93 319 0.0 3.5 0.00 0.11 0.00 53 1011.8
20260905194537 94 165 0.0 3.5 0.00 0.11 0.00 52 1012.0
20260905193040 93 162 0.0 3.5 0.00 0.11 0.00 53 1012.2
20260905191534 94 175 0.0 1.7 0.00 0.11 0.00 52 1012.4
20260905190029 93 162 0.0 2.6 0.00 0.11 0.00 52 1012.7
20260905184534 92 168 0.0 2.6 0.00 0.11 0.00 54 1012.9
20260905183007 92 164 0.0 1.7 0.00 0.11 0.00 56 1013.0
20260905181504 89 148 0.0 1.7 0.00 0.11 0.00 59 1013.0
20260905180045 87 135 0.0 2.6 0.00 0.11 0.00 63 1013.1
20260905174545 85 165 0.9 4.3 0.00 0.11 0.00 67 1013.2
20260905173042 86 160 0.0 3.5 0.00 0.11 0.00 63 1013.3
20260905171537 86 26 0.0 1.7 0.00 0.11 0.00 62 1012.8
20260905170032 87 226 0.0 2.6 0.00 0.11 0.00 61 1013.0
20260905164530 88 166 0.9 3.5 0.00 0.11 0.00 59 1013.2
20260905163027 85 15 0.0 3.5 0.00 0.11 0.00 65 1013.4
20260905161522 84 4 0.9 3.5 0.00 0.11 0.00 65 1013.2
20260905160022 84 33 0.0 2.6 0.00 0.11 0.00 62 1013.5
20260905154518 82 329 0.0 2.6 0.00 0.11 0.00 67 1013.5
20260905153004 81 101 0.0 3.5 0.00 0.11 0.00 70 1013.6
20260905151501 80 354 0.9 7.8 0.00 0.11 0.00 70 1013.4
20260905150058 79 46 0.9 3.5 0.00 0.11 0.00 73 1013.2
20260905144555 77 163 0.9 4.3 0.00 0.11 0.00 77 1013.1
20260905143051 76 206 1.7 7.0 0.00 0.11 0.00 80 1013.2
20260905141546 74 188 1.7 6.1 0.00 0.11 0.00 83 1013.1
20260905140041 73 163 1.7 4.3 0.00 0.11 0.00 86 1013.3
20260905134540 72 23 0.9 3.5 0.00 0.11 0.00 87 1013.8
20260905133022 70 41 0.0 1.7 0.00 0.11 0.00 91 1013.9
20260905131518 0 0.0 0.0 0.00 0.11 0.00 1014.6
20260905130014 0 0.0 0.0 0.00 0.11 0.00 1014.7
20260905124515 0 0.0 0.0 0.00 0.11 0.00 1014.6
20260905123018 0 0.0 0.0 0.00 0.11 0.00 1014.7
20260905121600 0 0.0 0.0 0.00 0.11 0.00 1014.7
20260905120056 0 0.0 0.0 0.00 0.11 0.00 1014.8
20260905114552 0 0.0 0.0 0.00 0.11 0.00 1014.8